User: anonymous   Login
Location: Unspecified
(0.0000°N, 0.0000°E)
Time: 03:46:01
(UTC+02:00)
Language:

Transit 2A - Orbit

View from above orbital plane
View from above orbital plane
View from above satellite
View from above satellite

Ground track
Ground track

The orbit data is extracted from the following two-line orbital elements,

1 00045U 60007A   17290.48442791 -.00000043  00000-0  16387-4 0  9997
2 00045  66.6946  67.3763 0261734 303.6291  54.0081 14.33571664983094
Epoch (UTC): 17 October 2017 11:37:34
Eccentricity: 0.0261734
inclination: 66.6946°
perigee height: 592 km
apogee height: 967 km
right ascension of ascending node: 67.3763°
argument of perigee: 303.6291°
revolutions per day: 14.33571664
mean anomaly at epoch: 54.0081°
orbit number at epoch: 98309

The dashed part of the orbit path shows where the satellite is in the earth's shadow,  

DLR